[[[{"header":{"parameterUnit":"kt","parameterCategory":2,"dx":1,"dy":1,"la1":30.253999710083008,"la2":30.299108505249023,"lo1":-89.0895004272461,"lo2":-89.04439544677734,"nx":28,"ny":28,"refTime":"2022-10-18T21:00:00:Z","depth":0,"parameterNumber":1,"parameterNumberName":"U-component_of_WINDS"},"data":[-5.6163,-5.6331,-5.6314,-5.6498,-5.6513,-5.6636,-5.6674,-5.6722,-5.6755,-5.6899,-5.6979,-5.6977,-5.7004,-5.7095,-5.718,-5.7178,-5.7218,-5.729,-5.7276,-5.6965,-5.6921,-5.6879,-5.684,-5.7298,-5.7298,-5.7603,-5.7606,-5.7608,-5.594,-5.5957,-5.6047,-5.6124,-5.6203,-5.6122,-5.6176,-5.6248,-5.6359,-5.64,-5.6477,-5.6603,-5.6699,-5.67,-5.679,-5.6869,-5.6837,-5.6895,-5.6892,-5.6898,-5.6563,-5.6521,-5.6919,-5.6919,-5.6919,-5.6919,-5.6919,-5.6919,-5.5528,-5.5629,-5.5665,-5.5763,-5.5796,-5.5847,-5.5941,-5.5936,-5.6025,-5.6116,-5.6076,-5.6202,-5.624,-5.6338,-5.6366,-5.6464,-5.6397,-5.6455,-5.6471,-5.6488,-5.6511,-5.6082,-5.6477,-5.6476,-5.6475,-5.6474,-5.6473,0,-5.5223,-5.5201,-5.5286,-5.5368,-5.5438,-5.5498,-5.5551,-5.5607,-5.5553,-5.5629,-5.5737,-5.5796,-5.5912,-5.6013,-5.6091,-5.6108,-5.6036,-5.6023,-5.6064,-5.6091,-5.6103,-5.6104,-5.5564,-5.6013,-5.6009,-5.6007,-5.6004,-5.6003,-5.4811,-5.4929,-5.4956,-5.5019,-5.5042,-5.5144,-5.52,-5.5143,-5.5206,-5.5262,-5.5354,-5.5451,-5.5528,-5.5703,-5.5697,-5.5784,-5.5751,-5.5925,-5.5764,-5.5782,-5.576,-5.5757,-5.577,-5.596,-5.5965,-5.597,-5.5973,0,-5.4583,-5.4551,-5.4727,-5.4741,-5.4749,-5.4875,-5.4888,-5.4985,-5.4969,-5.5102,-5.5129,-5.5106,-5.5212,-5.5177,-5.5291,-5.527,-5.5482,-5.5443,-5.547,-5.5462,-5.5619,-5.5607,-5.6123,-5.619,-5.5708,-5.5712,-5.5716,0,-5.4222,-5.4378,-5.4323,-5.4427,-5.4598,-5.4536,-5.4708,-5.4712,-5.4742,-5.4845,-5.4753,-5.4852,-5.4791,-5.4885,-5.4854,-5.502,-5.5039,-5.5035,-5.5027,-5.5047,-5.5049,-5.5085,-5.5065,-5.4994,-5.4991,-5.4989,-5.4987,0,-5.3872,-5.4022,-5.419,-5.4219,-5.425,-5.433,-5.4347,-5.4379,-5.4435,-5.4501,-5.4537,-5.4618,-5.4664,-5.4729,-5.4689,-5.4581,-5.4889,-5.4732,-5.4885,-5.4887,-5.496,-5.4957,-5.5417,-5.4983,-5.4983,-5.4982,-5.4981,0,-5.3578,-5.3645,-5.389,-5.3914,-5.3957,-5.4066,-5.4142,-5.4227,-5.4268,-5.4255,-5.4306,-5.4242,-5.438,-5.4228,-5.4419,-5.4291,-5.4342,-5.4349,-5.4359,-5.4375,-5.4208,-5.4479,-5.4916,-5.4963,-5.4382,-5.4377,-5.4373,0,-5.3189,-5.3427,-5.3375,-5.361,-5.3715,-5.3606,-5.3726,-5.3764,-5.3757,-5.3845,-5.3836,-5.3938,-5.3816,-5.3844,-5.3942,-5.3939,-5.4104,-5.3914,-5.4049,-5.4055,-5.4048,-5.4447,-5.4524,-5.4823,-5.4308,-5.4315,-5.432,0,-5.2884,-5.2918,-5.2964,-5.2996,-5.3035,-5.3121,-5.3258,-5.3345,-5.3407,-5.3458,-5.3574,-5.3712,-5.3629,-5.3674,-5.363,-5.3735,-5.399,-5.3631,-5.3631,-5.3702,-5.427,-5.4343,-5.4394,-5.3938,-5.3945,-5.3952,-5.4268,0,-5.2457,-5.257,-5.2688,-5.276,-5.282,-5.2962,-5.2924,-5.2993,-5.2944,-5.2933,-5.31,-5.3121,-5.321,-5.3254,-5.3208,-5.3456,-5.3411,-5.3319,-5.3174,-5.3434,-5.3538,-5.358,-5.3022,-5.3017,-5.3014,-5.301,0,0,-5.2096,-5.2256,-5.2195,-5.2325,-5.2373,-5.2258,-5.2414,-5.2447,-5.2517,-5.2553,-5.247,-5.2671,-5.2692,-5.29,-5.2978,-5.3011,-5.3054,-5.2964,-5.3309,-5.3342,-5.3373,-5.3485,-5.3529,-5.3004,-5.3002,-5.3001,-5.3,0,-5.1933,-5.1953,-5.2107,-5.2138,-5.2182,-5.2161,-5.2198,-5.2221,-5.2222,-5.2382,-5.2287,-5.2382,-5.2543,-5.258,-5.262,-5.2937,-5.2862,-5.2965,-5.3151,-5.3271,-5.331,-5.3344,-5.3462,-5.3504,-5.299,-5.2991,-5.2991,0,-5.163,-5.1646,-5.1715,-5.1815,-5.1842,-5.1952,-5.1789,-5.191,-5.1992,-5.186,-5.2023,-5.203,-5.2074,-5.2273,-5.236,-5.2288,-5.2689,-5.2554,-5.2577,-5.2587,-5.2702,-5.2748,-5.2789,-5.2248,-5.2245,-5.2243,0,0,-5.1495,-5.1598,-5.1597,-5.1777,-5.1801,-5.1772,-5.1826,-5.1783,-5.1825,-5.1842,-5.185,-5.1894,-5.1987,-5.205,-5.2134,-5.2357,-5.2364,-5.2464,-5.2499,-5.2528,-5.2554,-5.2676,-5.2722,-5.2234,-5.2234,-5.2233,0,0,-5.1431,-5.1437,-5.138,-5.1583,-5.1626,-5.1638,-5.175,-5.1681,-5.1754,-5.1733,-5.1668,-5.1677,-5.1861,-5.1872,-5.1753,-5.2083,-5.1939,-5.1966,-5.207,-5.2114,-5.2148,-5.2144,-5.1591,0,0,0,0,0,-5.1245,-5.1435,-5.1384,-5.1412,-5.1538,-5.1666,-5.1682,-5.1632,-5.1531,-5.1621,-5.1617,-5.1531,-5.1795,-5.1689,-5.1718,-5.1852,-5.2116,-5.2137,-5.2156,-5.2343,-5.2389,-5.2428,0,0,0,0,0,0,-5.1255,-5.129,-5.1379,-5.14,-5.1428,-5.1659,-5.1478,-5.1469,-5.152,-5.1502,-5.1534,-5.1532,-5.1492,-5.167,-5.1697,-5.1826,-5.1582,-5.2124,-5.2142,-5.2158,-5.2359,-5.2396,-5.2429,0,0,0,0,0,-5.1263,-5.1291,-5.1506,-5.1397,-5.1421,-5.14,-5.147,-5.1462,-5.15,-5.1493,-5.1488,-5.1458,-5.1497,-5.1516,-5.1686,-5.1815,-5.1562,-5.1573,-5.2135,-5.215,-5.2162,-5.2377,0,0,0,0,0,0,-5.1269,-5.1285,-5.151,-5.1515,-5.1321,-5.1386,-5.1394,-5.1455,-5.1488,-5.1484,-5.1413,-5.1398,-5.1503,-5.1517,-5.1532,-5.1814,-5.1547,-5.1557,-5.1564,-5.2146,-5.2157,-5.2167,0,0,0,0,0,0,-5.1269,-5.129,-5.1512,-5.1419,-5.1413,-5.1373,-5.1381,-5.1517,-5.149,-5.1405,-5.1393,-5.1406,-5.1479,-5.1518,-5.153,-5.1744,-5.1535,-5.1545,-5.1552,-5.1556,-5.2155,-5.2164,0,0,0,0,0,0,-5.1277,-5.1295,-5.1417,-5.1413,-5.1407,-5.1466,-5.1492,-5.1625,-5.1409,-5.1405,-5.1388,-5.1378,-5.1483,-5.1494,-5.1529,-5.1739,-5.1743,-5.1535,-5.1542,-5.1547,-5.155,0,0,0,0,0,0,0,-5.1283,-5.1175,-5.1477,-5.1408,-5.1403,-5.1566,-5.1568,-5.1569,-5.1406,-5.1398,-5.139,-5.1382,-5.1477,-5.1488,-5.1499,-5.1734,0,0,-5.1534,-5.1539,0,0,0,0,0,0,0,0,-5.1166,-5.1173,-5.1477,-5.1478,-5.1479,-5.1566,-5.1568,-5.1569,-5.1405,-5.1398,-5.1392,-5.1385,-5.148,-5.1489,-5.1498,0,0,0,0,0,0,0,0,0,0,0,0,0,0,0,-5.1477,-5.1478,0,-5.1567,-5.1568,-5.1569,-5.1404,-5.1399,-5.1393,-5.1388,-5.1482,-5.1489,-5.1497,0,0,0,0,0,0,0,0,0,0,0,0,0,0,0,0,0,0,0,0,0,0,0,0,0,0,0,0,0,0,0,0,0,0,0,0,0,0,0,0,0,0,0,0,0,0,0,0,0,0,0,0,0,0,0,0,0,0,0,0,0,0,0,0,0,0,0,0,0]}],[{"header":{"parameterUnit":"kt","parameterCategory":2,"dx":1,"dy":1,"la1":30.253999710083008,"la2":30.299108505249023,"lo1":-89.0895004272461,"lo2":-89.04439544677734,"nx":28,"ny":28,"refTime":"2022-10-18T21:00:00:Z","depth":0,"parameterNumber":2,"parameterNumberName":"V-component_of_WINDS"},"data":[-10.5823,-10.5975,-10.5983,-10.6158,-10.6194,-10.6314,-10.6359,-10.6416,-10.6463,-10.6604,-10.6685,-10.6704,-10.675,-10.6845,-10.6931,-10.6936,-10.6973,-10.7022,-10.702,-10.6795,-10.6764,-10.6735,-10.67,-10.703,-10.7031,-10.7253,-10.7255,-10.7256,-10.5658,-10.5696,-10.5791,-10.5888,-10.5969,-10.5925,-10.5997,-10.6067,-10.6174,-10.6232,-10.6312,-10.6435,-10.6532,-10.656,-10.6653,-10.672,-10.6703,-10.6745,-10.674,-10.6747,-10.6507,-10.6471,-10.6757,-10.6757,-10.6757,-10.6757,-10.6757,-10.6757,-10.5359,-10.545,-10.5513,-10.5616,-10.5666,-10.573,-10.5816,-10.5839,-10.593,-10.603,-10.6017,-10.6137,-10.6194,-10.6306,-10.6344,-10.6435,-10.6389,-10.6435,-10.6446,-10.6458,-10.6472,-10.6151,-10.645,-10.645,-10.6449,-10.6448,-10.6448,0,-10.5143,-10.5143,-10.5234,-10.5328,-10.5403,-10.5476,-10.5542,-10.5595,-10.5592,-10.5666,-10.5774,-10.5836,-10.5958,-10.6057,-10.6143,-10.6173,-10.6132,-10.6127,-10.6159,-10.6168,-10.6165,-10.6169,-10.5777,-10.6118,-10.6115,-10.6113,-10.6112,-10.6111,-10.4842,-10.4947,-10.5015,-10.5079,-10.5117,-10.5218,-10.5279,-10.5269,-10.5334,-10.5411,-10.549,-10.559,-10.567,-10.5838,-10.5858,-10.5947,-10.5928,-10.6058,-10.5941,-10.5945,-10.593,-10.5924,-10.5934,-10.6081,-10.6085,-10.6088,-10.609,0,-10.4672,-10.4682,-10.4847,-10.4902,-10.4919,-10.5029,-10.5075,-10.5163,-10.5174,-10.5296,-10.5324,-10.534,-10.5444,-10.5444,-10.5561,-10.5557,-10.5733,-10.5711,-10.5714,-10.571,-10.5826,-10.5816,-10.6205,-10.6255,-10.5912,-10.5916,-10.5918,0,-10.442,-10.4557,-10.4564,-10.4658,-10.481,-10.4796,-10.4946,-10.497,-10.502,-10.5116,-10.5071,-10.5161,-10.5146,-10.5236,-10.5231,-10.5374,-10.5396,-10.5401,-10.5398,-10.5406,-10.5405,-10.5438,-10.5422,-10.5386,-10.5384,-10.5383,-10.5381,0,-10.4153,-10.4317,-10.4471,-10.451,-10.4582,-10.4653,-10.4686,-10.474,-10.48,-10.4875,-10.4913,-10.5001,-10.505,-10.5117,-10.511,-10.5031,-10.5285,-10.5174,-10.529,-10.5291,-10.5347,-10.5344,-10.5688,-10.5379,-10.5378,-10.5377,-10.5377,0,-10.395,-10.4031,-10.4253,-10.4311,-10.4355,-10.4455,-10.4543,-10.4629,-10.4689,-10.4693,-10.4752,-10.4721,-10.4846,-10.4737,-10.4909,-10.4808,-10.4857,-10.4873,-10.4882,-10.4893,-10.477,-10.4965,-10.5293,-10.5328,-10.4903,-10.4899,-10.4896,0,-10.3643,-10.3869,-10.3859,-10.4069,-10.4173,-10.4116,-10.4226,-10.4282,-10.4297,-10.4385,-10.4398,-10.4498,-10.4417,-10.4447,-10.4533,-10.4551,-10.4682,-10.4533,-10.4656,-10.4661,-10.4644,-10.4946,-10.4995,-10.5222,-10.4845,-10.485,-10.4854,0,-10.3405,-10.3493,-10.3532,-10.3575,-10.3648,-10.3734,-10.3861,-10.3958,-10.4018,-10.4084,-10.4189,-10.4328,-10.4272,-10.4323,-10.4307,-10.4395,-10.4592,-10.4323,-10.4324,-10.4371,-10.4819,-10.4866,-10.4904,-10.4561,-10.4567,-10.4572,-10.4814,0,-10.3098,-10.3211,-10.3315,-10.3412,-10.3478,-10.3609,-10.3612,-10.368,-10.3659,-10.3671,-10.3825,-10.3868,-10.3964,-10.4006,-10.3985,-10.4189,-10.4154,-10.4093,-10.3986,-10.4184,-10.4263,-10.4296,-10.3867,-10.3864,-10.3861,-10.3859,0,0,-10.2801,-10.2964,-10.2949,-10.3073,-10.3128,-10.3067,-10.3207,-10.3252,-10.3346,-10.3385,-10.3325,-10.3528,-10.3566,-10.3752,-10.3813,-10.3852,-10.3888,-10.3818,-10.4089,-10.4115,-10.4139,-10.4224,-10.4258,-10.3854,-10.3853,-10.3852,-10.3851,0,-10.2689,-10.2734,-10.2874,-10.2921,-10.2991,-10.2998,-10.3032,-10.3089,-10.3103,-10.3254,-10.3198,-10.329,-10.3452,-10.3499,-10.3545,-10.3796,-10.3748,-10.3825,-10.3961,-10.4062,-10.4092,-10.4118,-10.4207,-10.424,-10.3845,-10.3845,-10.3845,0,-10.2456,-10.2501,-10.2568,-10.2692,-10.2737,-10.2845,-10.2734,-10.2852,-10.2931,-10.2854,-10.3004,-10.3028,-10.309,-10.3266,-10.3344,-10.3292,-10.3622,-10.3517,-10.3534,-10.3542,-10.364,-10.3675,-10.3706,-10.3294,-10.3292,-10.329,0,0,-10.2359,-10.2465,-10.2507,-10.2668,-10.2701,-10.2712,-10.2769,-10.2753,-10.2813,-10.2837,-10.2867,-10.2925,-10.3018,-10.308,-10.3168,-10.3361,-10.3372,-10.3449,-10.3475,-10.3496,-10.3516,-10.362,-10.3655,-10.3283,-10.3282,-10.3282,0,0,-10.2312,-10.2369,-10.2337,-10.2525,-10.2585,-10.2635,-10.2733,-10.2694,-10.2774,-10.2759,-10.2735,-10.275,-10.2913,-10.2938,-10.2842,-10.313,-10.3023,-10.3046,-10.3108,-10.314,-10.3166,-10.3156,-10.2732,0,0,0,0,0,-10.2199,-10.2362,-10.2333,-10.2365,-10.252,-10.2652,-10.2671,-10.2658,-10.2583,-10.2661,-10.2679,-10.2624,-10.2882,-10.2796,-10.2826,-10.2933,-10.319,-10.3206,-10.3222,-10.3346,-10.338,-10.3409,0,0,0,0,0,0,-10.2211,-10.225,-10.2328,-10.2387,-10.2421,-10.2646,-10.2517,-10.2518,-10.2575,-10.2562,-10.2622,-10.2626,-10.2615,-10.2779,-10.2807,-10.2909,-10.2723,-10.3196,-10.321,-10.3223,-10.3358,-10.3386,-10.341,0,0,0,0,0,-10.2221,-10.2252,-10.2505,-10.2384,-10.2414,-10.2435,-10.2511,-10.251,-10.2554,-10.2583,-10.2585,-10.2538,-10.2618,-10.264,-10.2796,-10.2897,-10.2704,-10.2714,-10.3205,-10.3216,-10.3226,-10.3372,0,0,0,0,0,0,-10.2228,-10.2252,-10.2511,-10.2519,-10.2322,-10.2422,-10.2437,-10.2504,-10.257,-10.2574,-10.2497,-10.2486,-10.2622,-10.2638,-10.2656,-10.2894,-10.2688,-10.2699,-10.2705,-10.3214,-10.3222,-10.323,0,0,0,0,0,0,-10.2235,-10.226,-10.2515,-10.2437,-10.2437,-10.241,-10.2424,-10.2553,-10.2571,-10.248,-10.2473,-10.2491,-10.2595,-10.2639,-10.2652,-10.2854,-10.2676,-10.2686,-10.2693,-10.2697,-10.3221,-10.3228,0,0,0,0,0,0,-10.2245,-10.2266,-10.2435,-10.2435,-10.2434,-10.2528,-10.2523,-10.2682,-10.2508,-10.2478,-10.2492,-10.2484,-10.2597,-10.2609,-10.2649,-10.2846,-10.2852,-10.2676,-10.2683,-10.2688,-10.2691,0,0,0,0,0,0,0,-10.2253,-10.2115,-10.2461,-10.2433,-10.2431,-10.2598,-10.26,-10.2603,-10.2506,-10.25,-10.2494,-10.2487,-10.2619,-10.263,-10.2641,-10.284,0,0,-10.2675,-10.268,0,0,0,0,0,0,0,0,-10.2106,-10.2113,-10.2461,-10.2463,-10.2465,-10.2599,-10.26,-10.2602,-10.2505,-10.25,-10.2495,-10.249,-10.2622,-10.263,-10.2639,0,0,0,0,0,0,0,0,0,0,0,0,0,0,0,-10.2461,-10.2463,0,-10.2599,-10.26,-10.2602,-10.2505,-10.25,-10.2496,-10.2492,-10.2624,-10.2631,-10.2639,0,0,0,0,0,0,0,0,0,0,0,0,0,0,0,0,0,0,0,0,0,0,0,0,0,0,0,0,0,0,0,0,0,0,0,0,0,0,0,0,0,0,0,0,0,0,0,0,0,0,0,0,0,0,0,0,0,0,0,0,0,0,0,0,0,0,0,0,0]}]]]